カタログに戻る

IMPULSE-1 MIRA

運用中科学SSO
NORAD 58301·PAYLOAD·🇺🇸 United States

打ち上げ Nov 11, 2023 から Vandenberg Space Force Base

Loading…

次のパス (今後24時間)

TLE

最新Source: Space-Track

元期: Sep 14, 2026, 05:07 UTC

1 58301U 23174AX  26257.21323449  .00012020  00000-0  30547-3 0  9991
2 58301  97.5155 344.6130 0070230 162.7521 197.6133 15.37219114158567

AllMySatでIMPULSE-1 MIRAをリアルタイム追跡

Download on the App Store